Regional Weather Roundup
Issued by NWS Sterling, VA

Home | Current Version | Previous Version | Graphics & Text | Print | Product List | Glossary On
Versions: 1 2 3 4 5 6 7 8 9 10 11 12 13 14 15 16 17 18 19 20 21 22 23 24 25 26 27 28 29 30 31 32 33 34 35 36 37 38 39 40 41 42 43 44 45 46 47 48 49 50
000
ASUS41 KLWX 222010
RWRLWX

REGIONAL WEATHER ROUNDUP
NATIONAL WEATHER SERVICE BALTIMORE MD/WASHINGTON DC
300 PM EST SAT NOV 22 2014

Note: "FAIR" indicates few or no clouds below 12,000 feet
with no significant weather and/or obstructions to visibility.
 TC=TEMPERATURE CELSIUS

 * =Non NWS site. Station does not report precipitation (e.g. rain,
    snow, etc.), thunder, or fog.

DCZ001-MDZ009-015-VAZ040>042-051-053>054-222100-
WASHINGTON METRO

CITY           SKY/WX    TMP DP  RH WIND       PRES   REMARKS
WASHINGTON NAT PTSUNNY   52  16  24 S15       30.35F
DULLES         MOSUNNY   48  15  26 S13       30.32F
ANDREWS AFB    SUNNY     48  15  26 S12       30.34F
FT BELVOIR     SUNNY     49  14  24 S12       30.35F
QUANTICO       SUNNY     49  22  34 SW15      30.37F
COLLEGE PARK*  PTSUNNY   50  14  23 SW7       30.33F
LEESBURG*      MOSUNNY   50  21  32 MISG      30.32F
MANASSAS*      SUNNY     52  16  24 SW10G16   30.34
GAITHERSBURG*  MOSUNNY   48  16  27 S8        30.34F

$$

MDZ006>007-011-014-222100-
BALTIMORE METRO

CITY           SKY/WX    TMP DP  RH WIND       PRES   REMARKS
BWI AIRPORT    PTSUNNY   47  14  26 S7G17     30.32F
MD SCIENCE CTR   N/A     47  13  25 MISG      30.34F
MARTIN STATE   MOSUNNY   46  19  34 S7        30.35F
ANNAPOLIS      PTSUNNY   49  14  24 S8        30.35F
FORT MEADE*    CLOUDY    50  16  25 SW9       30.35F

$$

MDZ012-015-019>023-222100-
MARYLAND EASTERN SHORE

CITY           SKY/WX    TMP DP  RH WIND       PRES   REMARKS
OCEAN CITY     SUNNY     45  23  42 SW13G22   30.39F
SALISBURY      SUNNY     49  16  26 S13       30.39F
BAY BRIDGE AP*   N/A     46  19  34 S10       30.35F
CAMBRIDGE*     SUNNY     46  19  34 S8        30.38F

$$

MDZ017>025-222100-
SOUTHERN MARYLAND

CITY           SKY/WX    TMP DP  RH WIND       PRES   REMARKS
PATUXENT RIVER MOSUNNY   48  14  25 SW10      30.38F
ST INIGOES     SUNNY     48  15  26 SW12      30.38F
LEONARDTOWN*   SUNNY     46  14  27 SW9G17    30.39S

$$

MDZ003>005-222100-
NORTH CENTRAL MARYLAND

CITY           SKY/WX    TMP DP  RH WIND       PRES   REMARKS
FREDERICK*     CLOUDY    52  10  19 SW7       30.33F
HAGERSTOWN APT CLOUDY    44  12  27 S14       30.27F
WESTMINSTER*   CLOUDY    45  16  31 S5        30.28F

$$

MDZ501>502-222100-
WESTERN MARYLAND

CITY           SKY/WX    TMP DP  RH WIND       PRES   REMARKS
OAKLAND*       CLOUDY    43  21  42 SW12      30.21S
CUMBERLAND*    MOSUNNY   41  16  36 CALM      30.29F

$$

VAZ025>031-222100-
SHENANDOAH VALLEY

CITY           SKY/WX    TMP DP  RH WIND       PRES   REMARKS
WINCHESTER*    PTSUNNY   50   3  14 S6        30.27F
FRONT ROYAL*   FAIR      55  19  24 SW3       30.26F
LURAY*         FAIR      59  25  27 SW10      30.27F
NEW MARKET*    FAIR      55  20  25 SW9       30.27F
STAUNTON*      SUNNY     55  16  21 S13       30.30F
WAYNESBORO*    FAIR      51  17  25 SE5       30.30S

$$

WVZ021-048>050-054>055-222100-
EASTERN WEST VIRGINIA PANHANDLE

CITY           SKY/WX    TMP DP  RH WIND       PRES   REMARKS
MARTINSBURG    CLOUDY    48  12  23 S7        30.28F
PETERSBURG*    MOSUNNY   62  29  29 W5        30.22F

$$

VAZ036>039-050-222100-
CENTRAL FOOTHILLS

CITY           SKY/WX    TMP DP  RH WIND       PRES   REMARKS
CHARLOTTESVILL SUNNY     51  14  22 SW9       30.34F
CULPEPER*      SUNNY     54  14  20 S8        30.34F
ORANGE*        SUNNY     52  16  24 S12       30.36S
GORDONSVILLE*  FAIR      50  16  25 SW10      30.34F
WARRENTON*     FAIR      53  25  33 SW9       30.33F

$$

VAZ055>057-222100-
NORTH AND CENTRAL PIEDMONT

CITY           SKY/WX    TMP DP  RH WIND       PRES   REMARKS
FREDERICKSBRG* SUNNY     52  16  24 SW9G17    30.36F
STAFFORD*      SUNNY     50  10  19 SW7       30.40S

$$

NCZ024-NYZ072-PAZ021-071-VAZ022-071-222100-
OTHER REGIONAL OBSERVATIONS

CITY           SKY/WX    TMP DP  RH WIND       PRES   REMARKS
NEW YORK CITY  PTSUNNY   43  14  31 W9        30.31F
PHILADELPHIA   PTSUNNY   46  17  31 SW17      30.34F
PITTSBURGH     CLOUDY    45  31  58 SW15G21   30.16F
ROANOKE        MOSUNNY   50  16  25 E7        30.36F
RICHMOND       PTSUNNY   52  14  22 S12       30.39F
RALEIGH        MOSUNNY   52  10  18 SW5       30.42F

$$

ANZ530>537-222100-
MARINE OBSERVATIONS

STATION/POSITION TIME  TEMP    WIND        PRES
                       AIR SEA DIR/SP/G
                 (UTC) (F)     (DEG/KT/KT) (MB)
THOMAS PT LIGHT  2000   45 47  190/ 16/ 17 1028.9F
BALT KEY BRIDGE  2000   46     180/ 10/ 12 1026.9F
COVE POINT       2000   46     210/ 13/ 16 1028.5F
LEWISETTA        2000   47 43  240/  8/ 10 1028.6F
SOLOMONS ISLAND  2000      48                N/A
PINEY POINT      2000          230/ 11/ 12   N/A

$$



USA.gov is the U.S. government's official web portal to all federal, state and local government web resources and services.